Location: Goll?ig?dem
(16.6773°N, 80.7332°E)
Time: 03:16:54
(UTC+00:00)

Stardust Del rocket - Pass Details

Date: 21 April 2021
Orbit: 286 x 4159 km, 22.5° (Epoch: 15 May)

Event Time Altitude Azimuth Distance (km) Brightness Sun altitude
Exits shadow 22:31:37 52° 330° (NNW) 858 4.1 -25.0°
Maximum altitude 22:32:28 61° 16° (NNE) 843 4.3 -24.8°
Drops below altitude 10° 22:40:14 10° 95° (E) 3,488 8.2 -23.0°
Sets 22:44:49 0° 98° (E) 5,177 9.3 -22.0°
